Hourly Data Report for September 24, 2006

TORONTO CITY
ONTARIO

43°40'00.000" N
79°24'00.000" W
112.50 m
6158355
71508
XTO

Download Data

Hourly Data (September 2006)
Hourly Data Report for September 24, 2006
TIME
LST
Temp Definition
°C
Dew Point Definition
°C
Rel Hum Definition
%
Precip. Amount Definition
mm

Wind Dir Definition
10's deg

Wind Spd Definition
km/h
Visibility Definition
km
Stn Press Definition
kPa
Hmdx Definition


Wind Chill Definition


Weather Definition


00:00 19.6 19.4 99   LegendMM LegendMM   98.65     LegendNANA
01:00 19.4 19.1 98   LegendMM LegendMM   98.55     LegendNANA
02:00 19.8 19.0 95   LegendMM LegendMM   98.43     LegendNANA
03:00 20.0 18.7 92   LegendMM LegendMM   98.37 27   LegendNANA
04:00 19.8 18.6 93   LegendMM LegendMM   98.38     LegendNANA
05:00 19.9 17.7 87   LegendMM LegendMM   98.43     LegendNANA
06:00 18.6 14.2 76   LegendMM LegendMM   98.52     LegendNANA
07:00 17.6 13.4 76   LegendMM LegendMM   98.58     LegendNANA
08:00 17.7 13.5 76   LegendMM LegendMM   98.64     LegendNANA
09:00 18.5 13.9 75   LegendMM LegendMM   98.68     LegendNANA
10:00 19.1 13.3 69   LegendMM LegendMM   98.75     LegendNANA
11:00 19.2 12.9 67   LegendMM LegendMM   98.74     LegendNANA
12:00 20.2 13.8 67   LegendMM LegendMM   98.76     LegendNANA
13:00 19.0 13.2 69   LegendMM LegendMM   98.76     LegendNANA
14:00 18.9 13.5 71   LegendMM LegendMM   98.77     LegendNANA
15:00 17.0 13.9 82   LegendMM LegendMM   98.86     LegendNANA
16:00 17.0 15.1 89   LegendMM LegendMM   98.87     LegendNANA
17:00 15.6 14.3 92   LegendMM LegendMM   98.96     LegendNANA
18:00 15.2 14.2 94   LegendMM LegendMM   99.06     LegendNANA
19:00 14.2 12.2 88   LegendMM LegendMM   99.19     LegendNANA
20:00 13.7 10.9 83   LegendMM LegendMM   99.34     LegendNANA
21:00 13.3 10.3 82   LegendMM LegendMM   99.43     LegendNANA
22:00 13.0 9.8 81   LegendMM LegendMM   99.51     LegendNANA
23:00 12.7 9.6 81   LegendMM LegendMM   99.59     LegendNANA

Notes on Data Quality.

Legend

  • E = Estimated
  • M = Missing
  • NA = Not Available*
  • [empty] = Indicates an unobserved value
Date modified: